Regional Weather Roundup
Issued by NWS

Home | Current Version | Previous Version | Text Only | Print | Product List | Glossary On
Versions: 1 2 3 4 5 6 7 8 9 10 11 12 13 14 15 16 17 18 19 20 21 22 23 24 25 26 27 28 29 30 31 32 33 34 35 36 37 38 39 40 41 42 43 44 45 46 47 48 49 50
000
ASUS45 KREV 310610
RWRNV
NEVADA REGIONAL WEATHER ROUNDUP
NATIONAL WEATHER SERVICE RENO NV
1100 PM PDT SAT AUG 30 2014

NOTE: "FAIR" INDICATES FEW OR NO CLOUDS BELOW 12,000 FEET WITH NO
SIGNIFICANT WEATHER AND/OR OBSTRUCTIONS TO VISIBILITY.

NVZ001-003-004-310700-
WESTERN NEVADA

CITY           SKY/WX    TMP DP  RH WIND       PRES   REMARKS
RENO           PTCLDY    72  32  23 NW13      30.01S
6HR MIN TEMP:  72; 6HR MAX TEMP:  85;

CARSON CITY    FAIR      68  28  22 CALM      30.03S
MINDEN         FAIR      68  28  22 W20G28    30.02F
PYRAMID LAKE     N/A     73 N/A N/A W5          N/A
FALLON         PTCLDY    72  29  20 W10       29.96R
6HR MIN TEMP:  72; 6HR MAX TEMP:  92;

LOVELOCK       PTCLDY    75  37  25 NW14      29.94R
6HR MIN TEMP:  75; 6HR MAX TEMP:  88;

HAWTHORNE      CLEAR     75  32  20 NW8       29.96R
$$

NVZ002-CAZ072-073-310700-
NORTHERN AND CENTRAL SIERRA

CITY           SKY/WX    TMP DP  RH WIND       PRES   REMARKS
S. LAKE TAHOE  CLEAR     60  32  34 SW6       30.13S
6HR MIN TEMP:  60; 6HR MAX TEMP:  76;

TRUCKEE        CLEAR     50  30  46 CALM      30.13R
SQUAW VLY 8000 NOT AVBL
SUSANVILLE     CLEAR     66  32  28 W7        30.00S
BLUE CANYON    CLEAR     63  35  35 SE5       30.10S
MAMMOTH LAKES  FAIR      63  19  19 NE5       30.17S
BRIDGEPORT     FAIR      62  24  23 W7        30.15S
$$

NVZ030-031-036-310700-
NORTHERN NEVADA

CITY           SKY/WX    TMP DP  RH WIND       PRES   REMARKS
ELKO           CLOUDY    64  32  30 S6        29.93R
6HR MIN TEMP:  63; 6HR MAX TEMP:  82;

WINNEMUCCA     NOT AVBL
WENDOVER       CLOUDY    75  39  27 NE5       29.84F
$$

NVZ035-037-310700-
CENTRAL NEVADA

CITY           SKY/WX    TMP DP  RH WIND       PRES   REMARKS
ELY            CLOUDY    65  26  23 CALM      30.01S
6HR MIN TEMP:  65; 6HR MAX TEMP:  85;

EUREKA           N/A     59  28  30 CALM      30.01R
6HR MIN TEMP:  59; 6HR MAX TEMP:  84;

$$

NVZ013-014-310700-
SOUTH CENTRAL NEVADA

CITY           SKY/WX    TMP DP  RH WIND       PRES   REMARKS
TONOPAH        CLEAR     73  24  16 NW12      30.00S
6HR MIN TEMP:  73; 6HR MAX TEMP:  91;

$$

NVZ017-020-022-310700-
SOUTHERN NEVADA

CITY           SKY/WX    TMP DP  RH WIND       PRES   REMARKS
LAS VEGAS      MOCLDY    92  29  10 S13       29.68F
6HR MIN TEMP:  92; 6HR MAX TEMP: 104;

N. LAS VEGAS   CLEAR     90  26  10 SE8       29.71S
6HR MIN TEMP:  90; 6HR MAX TEMP: 104;

NELLIS AFB     CLEAR     89  33  13 N5        29.69S
6HR MIN TEMP:  89; 6HR MAX TEMP: 105;

HENDERSON      PTCLDY    89  30  12 S9        29.75F
6HR MIN TEMP:  89; 6HR MAX TEMP: 105;

MERCURY        CLEAR     85  23  10 N8        29.79S
6HR MIN TEMP:  82; 6HR MAX TEMP:  98;

$$



USA.gov is the U.S. government's official web portal to all federal, state and local government web resources and services.